Location: Bussy-Saint-Georges
(48.8410°N, 2.7017°E)
Time: 22:08:51
(UTC+00:00)

Cosmos 614 Rocket - Pass Details

Date: 18 October 2021
Orbit: 733 x 763 km, 74.1° (Epoch: 07 December)

Event Time Altitude Azimuth Distance (km) Brightness Sun altitude
Rises 19:33:02 0° 336° (NNW) 3,172 7.8 -26.8°
Reaches altitude 10° 19:35:23 10° 335° (NNW) 2,246 6.9 -27.2°
Enters shadow 19:40:00 72° 310° (NW) 775 4.0 -27.9°
